CAPE
616 529 773 1045 1432 1491 1252 733 500 479 310 200 153 94 105 142 52 0 0 0 0 0 0 0 0 0 0 0 0 0 0 0 0 0 0 0 0 0 0 0 0 0 0
872 1019 1070 983 1083 1359 1192 542 217 242 421 318 182 129 94 101 19 0 0 0 0 0 0 0 0 0 0 0 0 0 0 0 0 0 0 0 0 0 0 0 0 0 0
1351 1390 1147 973 1170 1246 1045 398 256 200 232 179 155 128 46 13 2 0 0 0 0 0 0 0 0 0 0 0 0 0 0 0 0 0 0 0 0 0 0 0 0 0 0
1531 1590 1179 1201 1458 1303 377 226 198 194 97 69 95 44 20 2 1 2 0 0 0 0 0 0 0 0 0 0 0 0 0 0 0 0 0 0 0 0 0 0 0 0 0
501 342 1148 1374 1360 602 305 126 263 198 57 15 68 4 0 0 13 1 0 0 0 0 0 0 0 0 0 0 0 0 0 0 0 0 0 0 0 0 0 0 0 0 0
1841 1553 1340 1607 978 819 379 316 322 232 308 296 45 0 0 1 0 0 0 0 0 0 0 0 0 0 0 0 0 0 0 0 0 0 0 0 0 0 0 0 0 0 0
2095 1869 1782 1706 1392 996 517 413 408 426 392 268 124 0 0 0 0 0 0 0 0 0 0 0 0 0 0 0 0 0 0 0 0 0 0 0 0 0 0 0 0 0 0
2072 1992 2008 1851 1521 1240 846 651 631 568 378 156 126 0 0 0 0 0 0 0 0 0 0 0 0 0 0 0 0 0 0 0 0 0 0 0 0 0 0 0 0 0 0
2139 2016 2055 1820 1576 1266 1115 788 754 687 484 287 58 0 0 0 0 0 0 0 0 0 0 0 0 0 0 0 0 0 0 0 0 0 0 0 0 0 0 0 0 0 0
2121 2049 2083 1896 1682 1475 1326 961 826 625 461 259 0 0 0 0 0 0 0 0 0 0 0 0 0 0 0 0 0 0 0 0 0 0 0 0 0 0 0 0 0 0 0
2109 1988 2028 2000 1864 1726 1426 949 774 567 560 0 4 4 0 0 0 0 0 0 0 0 0 0 0 0 0 0 0 0 0 0 0 0 0 0 0 0 0 0 0 0 0
2086 2087 2000 1621 1374 1608 1316 865 839 641 504 15 11 15 1 0 0 0 0 0 0 0 0 0 0 0 0 0 0 0 0 0 0 0 0 0 0 0 0 0 0 0 0
1879 1910 1430 1198 258 752 1102 898 789 640 165 0 23 1 0 0 0 0 0 0 0 0 0 0 0 0 0 0 0 0 0 0 0 0 0 0 0 0 0 0 0 0 0
1579 1282 1163 861 216 137 851 703 712 605 22 35 29 24 16 0 0 0 0 0 0 0 0 0 0 0 0 0 0 0 0 0 0 0 0 0 0 0 0 0 0 0 0
1100 780 626 516 188 6 467 417 640 321 4 29 14 15 31 5 0 0 0 0 0 0 0 0 0 0 0 0 0 0 0 0 0 0 0 0 0 0 0 0 0 0 0
550 285 257 436 341 342 273 342 549 155 25 0 20 23 20 4 0 0 0 0 0 0 0 0 0 0 0 0 0 0 0 0 0 0 0 0 0 0 0 0 0 0 0
265 136 55 35 153 207 180 406 268 60 0 21 31 25 1 0 0 0 0 0 0 0 0 0 0 0 0 0 0 0 0 0 1 0 0 0 0 0 0 0 0 0 0
23 44 75 89 85 179 183 222 129 16 25 56 52 21 4 0 0 0 0 0 0 0 0 0 0 0 0 0 1 0 0 3 0 0 0 0 0 0 0 0 0 0 0
58 111 104 26 17 116 136 48 30 18 48 83 15 4 0 0 2 0 0 0 0 0 0 0 0 0 0 0 6 2 3 0 0 0 0 0 0 0 0 0 0 0 0
23 33 20 97 213 213 43 17 9 61 56 13 5 4 3 4 0 0 0 0 0 0 0 0 0 0 0 0 2 0 3 0 0 0 0 0 0 0 0 0 0 0 0
90 1 18 49 216 109 39 14 72 0 5 7 6 4 0 0 0 0 0 0 0 0 0 0 4 6 3 2 1 0 0 0 0 0 0 0 0 0 0 0 0 0 0
101 172 127 216 330 163 92 61 19 0 0 0 0 0 0 0 0 0 0 0 0 0 0 0 11 10 0 0 0 2 0 0 0 0 0 0 0 0 0 0 0 0 0
240 683 266 320 247 148 97 74 0 0 0 0 0 0 0 0 0 0 0 0 0 0 2 0 9 8 0 3 4 0 1 1 0 0 0 0 0 0 0 0 0 0 0
371 482 263 165 109 74 2 0 0 0 0 0 0 0 0 0 0 0 1 3 5 2 4 10 8 4 8 4 6 2 0 0 0 0 0 0 0 0 0 0 0 0 0
358 277 174 139 98 39 0 0 0 0 0 0 0 0 0 0 0 0 0 0 0 6 7 9 0 6 8 8 1 0 3 0 0 0 0 0 0 0 0 0 0 0 0
241 224 215 179 89 28 0 0 0 0 0 0 0 0 0 0 0 8 6 6 4 0 0 0 5 7 8 9 2 4 0 0 0 0 0 0 0 0 0 0 0 0 0
CIN
-427 -277 -289 -219 -77 -83 -50 -139 -134 -108 -89 -80 -29 -21 -51 -38 -55 -0 -0 -0 -0 -0 -0 -0 -0 -0 -0 -0 -0 -0 -0 -0 -0 -0 -0 -0 -0 -0 -0 -0 -0 -0 -0
-310 -195 -235 -144 -148 -74 -86 -214 -59 -90 -76 -49 -30 -13 -18 -39 -54 -0 -0 -0 -0 -0 -0 -0 -0 -0 -0 -0 -0 -0 -0 -0 -0 -0 -0 -0 -0 -0 -0 -0 -0 -0 -0
-290 -116 -198 -194 -102 -99 -84 -267 -152 -157 -94 -64 -52 -4 -0 -46 -13 -0 -0 -0 -0 -0 -0 -0 -0 -0 -0 -0 -0 -0 -0 -0 -0 -0 -0 -0 -0 -0 -0 -0 -0 -0 -0
-251 -180 -123 -131 -98 -82 -146 -297 -125 -154 -121 -93 -75 -109 -24 -0 -9 -4 -0 -0 -0 -0 -0 -0 -0 -0 -0 -0 -0 -0 -0 -0 -0 -0 -0 -0 -0 -0 -0 -0 -0 -0 -0
-22 -243 -163 -61 -86 -85 -265 -158 -164 -135 -70 -92 -68 -12 -0 -0 -2 -18 -0 -0 -0 -0 -0 -0 -0 -0 -0 -0 -0 -0 -0 -0 -0 -0 -0 -0 -0 -0 -0 -0 -0 -0 -0
-314 -281 -80 -58 -77 -51 -66 -55 -30 -88 -53 -30 -102 -0 -0 -5 -0 -0 -0 -0 -0 -0 -0 -0 -0 -0 -0 -0 -0 -0 -0 -0 -0 -0 -0 -0 -0 -0 -0 -0 -0 -0 -0
-159 -221 -226 -103 -96 -76 -87 -43 -54 -79 -67 -73 -75 -0 -0 -0 -0 -0 -0 -0 -0 -0 -0 -0 -0 -0 -0 -0 -0 -0 -0 -0 -0 -0 -0 -0 -0 -0 -0 -0 -0 -0 -0
-289 -193 -167 -138 -57 -70 -102 -85 -142 -69 -110 -100 -52 -0 -0 -0 -0 -0 -0 -0 -0 -0 -0 -0 -0 -0 -0 -0 -0 -0 -0 -0 -0 -0 -0 -0 -0 -0 -0 -0 -0 -0 -0
-252 -233 -203 -170 -62 -116 -89 -84 -51 -68 -78 -75 -116 -0 -0 -0 -0 -0 -0 -0 -0 -0 -0 -0 -0 -0 -0 -0 -0 -0 -0 -0 -0 -0 -0 -0 -0 -0 -0 -0 -0 -0 -0
-285 -238 -188 -170 -129 -111 -92 -84 -76 -90 -121 -126 -0 -0 -0 -0 -0 -0 -0 -0 -0 -0 -0 -0 -0 -0 -0 -0 -0 -0 -0 -0 -0 -0 -0 -0 -0 -0 -0 -0 -0 -0 -0
-204 -160 -138 -129 -110 -69 -54 -93 -41 -71 -55 -0 -258 -97 -0 -0 -0 -0 -0 -0 -0 -0 -0 -0 -0 -0 -0 -0 -0 -0 -0 -0 -0 -0 -0 -0 -0 -0 -0 -0 -0 -0 -0
-144 -101 -93 -62 -28 -33 -53 -52 -54 -61 -61 -298 -231 -156 -29 -0 -0 -0 -0 -0 -0 -0 -0 -0 -0 -0 -0 -0 -0 -0 -0 -0 -0 -0 -0 -0 -0 -0 -0 -0 -0 -0 -0
-89 -50 -65 -51 -53 -6 -26 -70 -95 -67 -145 -0 -147 -26 -0 -0 -0 -0 -0 -0 -0 -0 -0 -0 -0 -0 -0 -0 -0 -0 -0 -0 -0 -0 -0 -0 -0 -0 -0 -0 -0 -0 -0
-38 -75 -72 -73 -127 -22 -8 -49 -95 -82 -151 -135 -102 -22 -11 -0 -0 -0 -0 -0 -0 -0 -0 -0 -0 -0 -0 -0 -0 -0 -0 -0 -0 -0 -0 -0 -0 -0 -0 -0 -0 -0 -0
-43 -113 -99 -41 -83 -54 -10 -90 -67 -73 -34 -91 -62 -17 -10 -1 -0 -0 -0 -0 -0 -0 -0 -0 -0 -0 -0 -0 -0 -0 -0 -0 -0 -0 -0 -0 -0 -0 -0 -0 -0 -0 -0
-56 -31 -49 -41 -80 -43 -32 -70 -13 -66 -98 -0 -13 -8 -10 -13 -0 -0 -0 -0 -0 -0 -0 -0 -0 -0 -0 -0 -0 -0 -0 -0 -0 -0 -0 -0 -0 -0 -0 -0 -0 -0 -0
-62 -37 -27 -10 -11 -4 -4 -0 -39 -67 -0 -20 -6 -3 -6 -0 -0 -0 -0 -0 -0 -0 -0 -0 -0 -0 -0 -0 -0 -0 -0 -0 -0 -0 -0 -0 -0 -0 -0 -0 -0 -0 -0
-52 -10 -0 -0 -16 -4 -11 -4 -6 -64 -12 -10 -6 -4 -12 -0 -0 -0 -1 -0 -0 -0 -0 -0 -0 -0 -0 -0 -1 -0 -0 -1 -0 -0 -0 -0 -0 -0 -0 -0 -0 -0 -0
-26 -15 -1 -24 -7 -49 -3 -57 -36 -18 -41 -18 -4 -12 -0 -10 -8 -2 -0 -0 -0 -0 -0 -0 -0 -0 -0 -0 -1 -4 -4 -0 -0 -0 -0 -0 -0 -0 -0 -0 -0 -0 -0
-111 -50 -32 -12 -14 -23 -86 -55 -17 -43 -20 -8 -3 -7 -11 -9 -0 -0 -0 -0 -0 -0 -0 -0 -0 -0 -0 -0 -4 -0 -3 -0 -0 -0 -0 -0 -0 -0 -0 -0 -0 -0 -0
-30 -2 -99 -23 -17 -55 -55 -61 -43 -0 -6 -4 -2 -3 -0 -0 -0 -0 -0 -0 -0 -0 -0 -0 -2 -2 -7 -10 -5 -0 -0 -0 -0 -0 -0 -0 -0 -0 -0 -0 -0 -0 -0
-82 -53 -42 -36 -18 -26 -43 -39 -32 -7 -0 -0 -0 -0 -0 -0 -0 -0 -0 -0 -0 -0 -0 -0 -1 -2 -0 -0 -0 -21 -0 -0 -0 -0 -0 -0 -0 -0 -0 -0 -0 -0 -0
-74 -10 -43 -31 -19 -16 -16 -18 -0 -0 -0 -0 -0 -0 -0 -0 -0 -0 -0 -0 -1 -0 -3 -0 -2 -6 -0 -17 -19 -0 -9 -1 -0 -0 -0 -0 -0 -0 -0 -0 -0 -0 -0
-75 -28 -53 -70 -64 -58 -11 -1 -0 -0 -0 -0 -0 -0 -0 -0 -0 -0 -4 -2 -6 -3 -14 -2 -5 -13 -22 -21 -20 -16 -0 -0 -0 -0 -0 -0 -0 -0 -0 -0 -0 -0 -0
-48 -47 -59 -66 -61 -83 -0 -0 -0 -0 -0 -0 -0 -0 -0 -0 -0 -0 -0 -0 -0 -4 -1 -4 -0 -24 -30 -16 -9 -0 -8 -0 -0 -0 -0 -0 -0 -0 -0 -0 -0 -0 -0
-81 -53 -49 -48 -54 -54 -0 -0 -0 -0 -0 -0 -0 -0 -0 -0 -0 -2 -5 -1 -9 -1 -0 -1 -17 -26 -4 -4 -5 -1 -11 -0 -0 -0 -0 -0 -0 -0 -0 -0 -0 -0 -0
Wind_Speed
25 20 15 24 19 29 36 32 46 41 38 30 28 nan 24 31 nan nan nan nan nan nan nan nan nan nan nan nan nan nan nan nan nan nan nan nan nan nan nan nan nan nan nan
23 25 21 17 27 32 23 29 32 25 20 26 23 24 nan 24 nan nan nan nan nan nan nan nan nan nan nan nan nan nan nan nan nan nan nan nan nan nan nan nan nan nan nan
31 24 18 21 26 20 25 17 27 26 27 33 29 29 nan nan nan nan nan nan nan nan nan nan nan nan nan nan nan nan nan nan nan nan nan nan nan nan nan nan nan nan nan
38 25 17 17 20 20 23 23 24 23 nan nan nan nan nan nan nan nan nan nan nan nan nan nan nan nan nan nan nan nan nan nan nan nan nan nan nan nan nan nan nan nan nan
33 22 8 13 13 18 23 23 24 25 nan nan nan nan nan nan nan nan nan nan nan nan nan nan nan nan nan nan nan nan nan nan nan nan nan nan nan nan nan nan nan nan nan
41 40 28 17 14 21 26 27 26 27 27 27 nan nan nan nan nan nan nan nan nan nan nan nan nan nan nan nan nan nan nan nan nan nan nan nan nan nan nan nan nan nan nan
40 29 30 23 20 19 24 29 31 30 30 26 25 nan nan nan nan nan nan nan nan nan nan nan nan nan nan nan nan nan nan nan nan nan nan nan nan nan nan nan nan nan nan
38 28 28 26 28 25 27 29 26 26 30 28 28 nan nan nan nan nan nan nan nan nan nan nan nan nan nan nan nan nan nan nan nan nan nan nan nan nan nan nan nan nan nan
32 31 31 30 31 29 30 29 30 29 28 28 nan nan nan nan nan nan nan nan nan nan nan nan nan nan nan nan nan nan nan nan nan nan nan nan nan nan nan nan nan nan nan
32 37 34 32 33 33 34 33 29 33 33 31 nan nan nan nan nan nan nan nan nan nan nan nan nan nan nan nan nan nan nan nan nan nan nan nan nan nan nan nan nan nan nan
34 35 36 39 38 36 37 33 29 31 28 nan nan nan nan nan nan nan nan nan nan nan nan nan nan nan nan nan nan nan nan nan nan nan nan nan nan nan nan nan nan nan nan
38 41 39 40 40 34 32 27 29 33 31 nan nan nan nan nan nan nan nan nan nan nan nan nan nan nan nan nan nan nan nan nan nan nan nan nan nan nan nan nan nan nan nan
45 46 48 55 47 28 15 24 28 32 31 nan nan nan nan nan nan nan nan nan nan nan nan nan nan nan nan nan nan nan nan nan nan nan nan nan nan nan nan nan nan nan nan
52 46 53 55 68 34 20 19 28 32 nan nan nan nan nan nan nan nan nan nan nan nan nan nan nan nan nan nan nan nan nan nan nan nan nan nan nan nan nan nan nan nan nan
58 59 59 52 65 nan 24 23 28 29 nan nan nan nan nan nan nan nan nan nan nan nan nan nan nan nan nan nan nan nan nan nan nan nan nan nan nan nan nan nan nan nan nan
55 63 67 61 52 30 31 35 39 32 nan nan nan nan nan nan nan nan nan nan nan nan nan nan nan nan nan nan nan nan nan nan nan nan nan nan nan nan nan nan nan nan nan
48 58 nan nan 50 28 28 32 27 nan nan nan nan nan nan nan nan nan nan nan nan nan nan nan nan nan nan nan nan nan nan nan nan nan nan nan nan nan nan nan nan nan nan
nan nan nan nan nan 15 18 23 26 nan nan nan nan nan nan nan nan nan nan nan nan nan nan nan nan nan nan nan nan nan nan nan nan nan nan nan nan nan nan nan nan nan nan
nan 26 22 nan nan 13 16 nan nan nan nan nan nan nan nan nan nan nan nan nan nan nan nan nan nan nan nan nan nan nan nan nan nan nan nan nan nan nan nan nan nan nan nan
nan nan nan nan 14 15 nan nan nan nan nan nan nan nan nan nan nan nan nan nan nan nan nan nan nan nan nan nan nan nan nan nan nan nan nan nan nan nan nan nan nan nan nan
nan nan nan nan 10 16 nan nan nan nan nan nan nan nan nan nan nan nan nan nan nan nan nan nan nan nan nan nan nan nan nan nan nan nan nan nan nan nan nan nan nan nan nan
4 5 5 7 12 16 nan nan nan nan nan nan nan nan nan nan nan nan nan nan nan nan nan nan nan nan nan nan nan nan nan nan nan nan nan nan nan nan nan nan nan nan nan
10 12 9 12 12 13 nan nan nan nan nan nan nan nan nan nan nan nan nan nan nan nan nan nan nan nan nan nan nan nan nan nan nan nan nan nan nan nan nan nan nan nan nan
13 12 10 8 8 nan nan nan nan nan nan nan nan nan nan nan nan nan nan nan nan nan nan nan nan nan nan nan nan nan nan nan nan nan nan nan nan nan nan nan nan nan nan
9 9 11 11 nan nan nan nan nan nan nan nan nan nan nan nan nan nan nan nan nan nan nan nan nan nan nan nan nan nan nan nan nan nan nan nan nan nan nan nan nan nan nan
10 13 13 13 nan nan nan nan nan nan nan nan nan nan nan nan nan nan nan nan nan nan nan nan nan nan nan nan nan nan nan nan nan nan nan nan nan nan nan nan nan nan nan
Wind_Direction
306 312 303 337 353 335 355 337 309 295 294 264 254 nan 262 274 nan nan nan nan nan nan nan nan nan nan nan nan nan nan nan nan nan nan nan nan nan nan nan nan nan nan nan
277 274 281 351 348 1 359 346 352 346 326 271 279 270 nan 265 nan nan nan nan nan nan nan nan nan nan nan nan nan nan nan nan nan nan nan nan nan nan nan nan nan nan nan
279 295 27 16 8 4 3 14 11 13 358 1 329 293 nan nan nan nan nan nan nan nan nan nan nan nan nan nan nan nan nan nan nan nan nan nan nan nan nan nan nan nan nan
293 300 2 23 12 347 340 342 4 355 nan nan nan nan nan nan nan nan nan nan nan nan nan nan nan nan nan nan nan nan nan nan nan nan nan nan nan nan nan nan nan nan nan
296 298 339 40 354 341 326 334 346 347 nan nan nan nan nan nan nan nan nan nan nan nan nan nan nan nan nan nan nan nan nan nan nan nan nan nan nan nan nan nan nan nan nan
302 312 6 8 347 332 324 325 336 344 345 343 nan nan nan nan nan nan nan nan nan nan nan nan nan nan nan nan nan nan nan nan nan nan nan nan nan nan nan nan nan nan nan
300 322 329 336 328 323 319 320 328 338 341 345 334 nan nan nan nan nan nan nan nan nan nan nan nan nan nan nan nan nan nan nan nan nan nan nan nan nan nan nan nan nan nan
300 318 309 312 307 313 316 320 325 330 334 335 335 nan nan nan nan nan nan nan nan nan nan nan nan nan nan nan nan nan nan nan nan nan nan nan nan nan nan nan nan nan nan
297 289 287 299 301 303 306 313 315 315 322 324 nan nan nan nan nan nan nan nan nan nan nan nan nan nan nan nan nan nan nan nan nan nan nan nan nan nan nan nan nan nan nan
290 292 291 293 298 304 304 309 307 313 316 318 nan nan nan nan nan nan nan nan nan nan nan nan nan nan nan nan nan nan nan nan nan nan nan nan nan nan nan nan nan nan nan
283 289 295 294 286 288 288 290 303 305 304 nan nan nan nan nan nan nan nan nan nan nan nan nan nan nan nan nan nan nan nan nan nan nan nan nan nan nan nan nan nan nan nan
274 273 273 269 249 250 266 282 288 299 303 nan nan nan nan nan nan nan nan nan nan nan nan nan nan nan nan nan nan nan nan nan nan nan nan nan nan nan nan nan nan nan nan
264 267 265 270 247 216 244 266 285 294 301 nan nan nan nan nan nan nan nan nan nan nan nan nan nan nan nan nan nan nan nan nan nan nan nan nan nan nan nan nan nan nan nan
271 276 282 283 277 253 231 254 278 286 nan nan nan nan nan nan nan nan nan nan nan nan nan nan nan nan nan nan nan nan nan nan nan nan nan nan nan nan nan nan nan nan nan
273 277 275 276 283 nan 223 250 271 286 nan nan nan nan nan nan nan nan nan nan nan nan nan nan nan nan nan nan nan nan nan nan nan nan nan nan nan nan nan nan nan nan nan
280 281 279 270 251 237 235 242 239 270 nan nan nan nan nan nan nan nan nan nan nan nan nan nan nan nan nan nan nan nan nan nan nan nan nan nan nan nan nan nan nan nan nan
285 285 nan nan 235 215 207 247 264 nan nan nan nan nan nan nan nan nan nan nan nan nan nan nan nan nan nan nan nan nan nan nan nan nan nan nan nan nan nan nan nan nan nan
nan nan nan nan nan 251 248 262 261 nan nan nan nan nan nan nan nan nan nan nan nan nan nan nan nan nan nan nan nan nan nan nan nan nan nan nan nan nan nan nan nan nan nan
nan 224 221 nan nan 269 269 nan nan nan nan nan nan nan nan nan nan nan nan nan nan nan nan nan nan nan nan nan nan nan nan nan nan nan nan nan nan nan nan nan nan nan nan
nan nan nan nan 225 253 nan nan nan nan nan nan nan nan nan nan nan nan nan nan nan nan nan nan nan nan nan nan nan nan nan nan nan nan nan nan nan nan nan nan nan nan nan
nan nan nan nan 236 257 nan nan nan nan nan nan nan nan nan nan nan nan nan nan nan nan nan nan nan nan nan nan nan nan nan nan nan nan nan nan nan nan nan nan nan nan nan
170 221 240 271 263 264 nan nan nan nan nan nan nan nan nan nan nan nan nan nan nan nan nan nan nan nan nan nan nan nan nan nan nan nan nan nan nan nan nan nan nan nan nan
292 290 258 240 250 260 nan nan nan nan nan nan nan nan nan nan nan nan nan nan nan nan nan nan nan nan nan nan nan nan nan nan nan nan nan nan nan nan nan nan nan nan nan
263 265 266 269 275 nan nan nan nan nan nan nan nan nan nan nan nan nan nan nan nan nan nan nan nan nan nan nan nan nan nan nan nan nan nan nan nan nan nan nan nan nan nan
256 259 273 286 nan nan nan nan nan nan nan nan nan nan nan nan nan nan nan nan nan nan nan nan nan nan nan nan nan nan nan nan nan nan nan nan nan nan nan nan nan nan nan
270 271 279 282 nan nan nan nan nan nan nan nan nan nan nan nan nan nan nan nan nan nan nan nan nan nan nan nan nan nan nan nan nan nan nan nan nan nan nan nan nan nan nan